Temp
61 62 61 60 64 64 63 63 62 62 63 65 65 65 64 63 62 62 61 63 67 69 69 71 70 69 70 63 65 63 48 47 51 55 53 59 57 63 64 59 63 64 64 65 70
61 61 61 60 61 63 63 63 62 61 61 64 65 65 64 63 63 62 65 68 69 69 68 66 64 66 59 60 59 53 46 50 57 56 55 59 58 60 58 58 59 61 67 70 69
61 62 62 60 59 61 63 63 63 60 59 63 64 64 63 63 60 58 67 69 69 69 70 71 69 65 57 59 56 55 49 56 56 56 57 57 56 60 55 53 59 58 63 67 66
61 61 61 61 58 59 61 62 63 62 60 62 63 64 62 61 44 61 67 68 69 70 69 66 64 56 54 52 58 49 56 56 56 56 55 53 57 54 56 56 63 63 64 63 63
62 62 62 62 60 59 60 62 63 63 62 61 61 62 60 54 50 66 68 68 70 68 65 63 59 57 52 55 54 51 54 56 57 55 54 57 52 52 54 60 63 65 64 60 60
62 61 61 61 61 61 61 61 62 63 60 61 61 60 56 44 62 63 67 68 67 66 62 63 60 60 56 54 51 53 53 53 54 55 55 52 51 53 56 60 60 62 59 60 60
61 61 60 60 60 61 61 61 62 61 59 58 58 60 51 47 60 64 68 66 67 66 60 62 62 58 57 49 54 52 46 52 53 53 51 50 47 47 56 60 57 57 59 60 60
61 60 59 59 59 60 61 61 59 58 58 58 60 56 42 57 61 67 67 64 67 66 63 63 63 57 55 54 52 47 44 38 49 50 50 48 36 52 56 55 53 55 55 59 61
60 59 59 60 60 58 60 58 58 57 57 57 55 52 42 62 60 65 67 60 63 63 63 66 61 52 52 43 38 41 32 40 44 51 48 45 38 50 55 55 54 55 56 58 59
59 59 58 57 58 57 57 57 57 55 55 56 57 46 48 50 59 63 65 64 59 58 56 55 52 45 44 36 28 32 31 39 38 45 46 43 43 50 54 55 54 54 54 55 57
59 58 58 57 57 56 54 50 45 43 50 44 45 45 49 57 63 59 64 61 60 55 42 48 40 36 42 44 43 40 35 35 42 50 42 41 43 47 52 53 52 52 52 54 56
58 59 59 59 57 56 53 46 47 49 39 50 51 50 55 59 50 55 63 52 51 41 46 41 35 45 48 45 42 39 35 35 43 48 44 42 41 47 51 51 53 50 50 52 53
58 58 59 59 58 55 49 48 54 55 41 45 53 52 53 57 50 50 58 53 48 44 43 36 41 48 46 40 38 37 33 36 36 42 42 39 35 43 51 51 53 51 53 54 54
58 58 58 59 54 53 48 53 55 57 35 37 45 50 55 55 46 58 58 52 47 41 43 41 46 44 41 39 39 29 42 40 38 29 20 37 22 36 45 46 50 52 51 50 51
57 58 59 60 54 51 54 58 57 52 21 41 45 59 56 49 48 49 58 52 44 44 42 36 40 40 38 42 41 34 42 39 37 30 29 30 26 30 44 43 46 47 51 48 49
57 58 58 59 56 56 59 59 52 35 19 35 46 45 46 49 48 51 51 54 52 45 44 41 46 44 42 46 45 45 39 36 36 31 22 28 26 25 35 42 44 46 46 47 47
57 58 59 61 52 60 59 51 34 24 39 35 39 45 42 42 44 47 45 40 36 28 28 37 36 44 46 38 44 40 31 22 22 22 18 25 23 29 42 46 44 42 42 44 46
57 59 58 59 60 59 54 41 25 36 34 44 44 44 36 43 42 44 41 37 42 39 31 27 29 39 44 40 35 34 29 25 14 17 20 29 20 29 47 47 46 44 44 43 43
57 59 57 57 59 56 47 31 31 34 43 41 42 32 37 41 40 39 34 41 44 42 32 32 32 44 45 45 39 34 28 37 26 29 26 24 32 42 43 42 42 41 40 38 39
57 56 52 58 58 52 41 36 37 47 47 45 32 39 32 34 34 34 35 44 43 46 47 37 29 42 41 42 40 37 39 29 29 18 17 24 30 30 34 35 38 37 35 36 39
54 50 54 58 54 48 33 36 42 49 49 43 41 39 41 36 37 33 38 43 47 44 46 39 34 34 39 35 33 34 32 33 33 29 24 23 27 37 35 37 36 34 36 38 40
52 41 55 56 41 44 37 44 45 47 49 47 46 43 41 41 38 33 34 44 49 48 39 41 35 29 35 45 47 44 40 36 25 27 30 29 28 42 41 40 39 36 38 41 42
50 49 55 53 37 37 43 44 47 46 46 46 44 46 45 40 33 40 35 48 49 47 42 41 34 28 33 36 44 37 40 41 40 33 28 25 28 45 44 42 41 38 41 42 42
51 38 48 51 49 44 40 41 41 46 46 47 46 47 43 41 42 37 34 46 47 47 48 47 39 34 23 31 39 34 40 41 36 29 31 30 34 39 41 40 41 41 43 43 43
50 42 44 40 42 44 43 44 41 40 46 47 43 44 36 35 39 38 37 42 45 48 43 43 34 38 40 42 42 40 39 40 31 36 29 35 33 41 45 42 41 42 44 43 43
45 43 46 44 45 43 40 40 42 43 43 43 40 45 43 37 38 37 42 38 37 44 42 44 32 37 32 41 41 37 41 41 40 40 39 39 39 50 47 48 44 43 43 42 43
51 51 46 43 42 40 41 42 43 44 45 47 45 42 41 43 45 45 45 45 43 40 41 39 35 31 27 38 38 31 39 40 41 43 42 35 42 45 45 47 43 42 43 43 43
MSLP
1011.40 1011.56 1011.87 1012.32 1012.13 1012.19 1012.32 1012.47 1012.71 1012.76 1012.95 1013.29 1013.83 1014.36 1014.86 1015.34 1015.57 1015.40 1014.72 1015.14 1014.67 1014.68 1014.62 1014.10 1013.89 1013.71 1013.50 1013.72 1013.85 1013.79 1013.72 1013.23 1012.79 1012.51 1013.28 1013.35 1013.37 1013.60 1013.75 1013.72 1013.29 1013.19 1013.48 1014.25 1014.49
1011.75 1012.08 1012.16 1012.42 1012.25 1012.60 1012.73 1012.65 1012.64 1012.81 1012.84 1013.04 1013.66 1014.31 1014.94 1015.14 1015.12 1014.84 1015.54 1015.03 1014.98 1014.95 1014.55 1014.02 1013.87 1013.78 1013.77 1013.94 1014.35 1014.21 1014.03 1014.00 1014.15 1014.18 1014.28 1014.47 1014.56 1014.47 1014.49 1014.11 1013.90 1013.76 1013.76 1014.08 1014.34
1012.22 1012.41 1012.45 1012.69 1012.98 1013.04 1013.04 1013.05 1012.97 1013.07 1013.21 1012.99 1013.55 1014.19 1014.86 1015.30 1014.84 1015.50 1015.56 1015.29 1015.20 1015.11 1014.38 1013.83 1013.79 1013.84 1013.96 1014.29 1014.48 1014.36 1014.48 1014.57 1015.31 1015.64 1015.68 1015.59 1015.58 1015.40 1015.17 1014.85 1014.31 1014.36 1014.23 1014.27 1014.56
1012.54 1012.71 1012.83 1013.01 1013.25 1013.46 1013.29 1013.23 1013.10 1012.97 1013.09 1013.35 1013.70 1014.29 1014.96 1015.28 1015.65 1015.93 1015.75 1015.58 1015.50 1015.04 1014.60 1014.16 1014.19 1014.24 1014.27 1014.56 1014.75 1014.92 1015.14 1015.42 1015.90 1016.37 1016.49 1016.59 1016.43 1016.14 1015.80 1015.32 1014.73 1014.75 1014.74 1014.89 1015.16
1013.07 1013.16 1013.14 1013.14 1013.40 1013.31 1013.48 1013.23 1013.17 1013.20 1013.02 1013.24 1013.80 1014.63 1015.23 1015.47 1016.38 1016.01 1015.77 1015.66 1015.45 1015.22 1014.89 1014.68 1014.56 1014.35 1014.51 1014.85 1015.41 1015.38 1015.63 1015.94 1016.11 1016.67 1016.90 1016.96 1016.88 1016.70 1016.09 1015.51 1015.12 1015.03 1015.13 1015.28 1015.44
1013.47 1013.41 1013.34 1013.25 1013.36 1013.27 1013.45 1013.51 1013.42 1013.24 1013.08 1013.30 1014.14 1014.95 1015.34 1016.29 1016.91 1016.49 1015.98 1015.68 1015.61 1015.42 1015.39 1015.02 1014.82 1014.92 1015.08 1015.60 1015.92 1016.18 1016.34 1016.28 1016.37 1016.64 1016.83 1017.05 1016.89 1016.82 1015.72 1015.35 1015.15 1015.22 1015.26 1015.32 1015.33
1013.69 1013.64 1013.52 1013.41 1013.34 1013.25 1013.48 1013.73 1013.89 1014.23 1013.92 1014.16 1014.88 1014.67 1015.84 1017.57 1017.33 1016.62 1016.02 1015.88 1015.68 1015.69 1015.81 1015.85 1015.69 1015.68 1016.01 1016.78 1017.03 1016.96 1016.82 1016.33 1016.44 1016.72 1017.16 1017.54 1016.79 1016.28 1015.68 1015.46 1015.25 1015.31 1015.16 1014.98 1014.92
1013.96 1013.83 1013.64 1013.29 1013.08 1013.16 1013.45 1013.88 1014.30 1014.77 1015.03 1015.42 1015.62 1015.32 1017.86 1017.73 1017.27 1016.36 1016.24 1016.21 1016.24 1016.43 1016.51 1016.45 1016.35 1016.50 1016.77 1017.41 1017.42 1017.23 1017.25 1016.96 1016.90 1017.11 1017.65 1017.77 1016.94 1016.06 1015.78 1015.71 1015.62 1015.34 1015.14 1014.74 1014.42
1014.44 1014.39 1013.95 1013.47 1013.16 1013.54 1013.71 1014.63 1014.99 1015.52 1015.76 1015.77 1015.71 1015.52 1018.61 1017.72 1017.05 1016.72 1016.47 1016.62 1016.69 1016.79 1016.80 1016.80 1016.89 1017.24 1017.67 1017.80 1017.94 1017.85 1017.79 1017.30 1017.19 1017.38 1017.68 1017.91 1017.18 1016.31 1015.80 1015.56 1015.22 1014.96 1014.72 1014.33 1013.82
1014.96 1014.97 1014.90 1014.89 1014.77 1014.80 1015.23 1015.26 1015.62 1015.72 1016.68 1017.18 1016.60 1017.25 1019.16 1018.33 1017.47 1017.22 1017.06 1016.88 1016.93 1017.14 1017.30 1017.26 1017.30 1017.56 1017.99 1018.55 1018.67 1018.33 1018.38 1018.11 1017.92 1017.80 1017.78 1017.71 1016.92 1016.20 1015.47 1015.03 1014.51 1014.12 1013.94 1013.84 1013.59
1015.46 1015.55 1015.59 1015.63 1015.93 1015.97 1016.13 1016.49 1017.61 1018.26 1017.80 1017.94 1017.90 1017.74 1018.59 1018.53 1017.56 1017.60 1017.30 1017.22 1017.15 1017.25 1017.83 1018.00 1018.04 1018.36 1018.71 1018.97 1019.10 1019.15 1019.16 1019.04 1018.43 1017.96 1018.19 1017.84 1016.88 1015.92 1014.89 1014.45 1013.95 1013.71 1013.47 1013.30 1013.32
1016.02 1016.01 1015.95 1015.98 1016.34 1016.63 1016.81 1017.22 1017.70 1018.04 1018.39 1019.01 1018.87 1018.94 1018.98 1018.34 1018.11 1018.18 1017.75 1017.70 1017.52 1018.03 1018.22 1018.56 1018.92 1019.40 1019.55 1019.80 1019.92 1019.97 1019.77 1019.53 1018.93 1018.80 1018.96 1017.94 1016.23 1015.30 1014.01 1013.52 1013.46 1013.52 1013.65 1013.35 1013.28
1016.49 1016.41 1016.34 1016.43 1016.77 1016.82 1017.44 1017.93 1017.99 1017.73 1018.35 1019.52 1019.00 1018.90 1018.80 1018.51 1018.52 1018.46 1018.23 1017.90 1017.93 1018.40 1018.70 1019.00 1019.88 1020.01 1020.05 1020.24 1020.45 1020.33 1020.41 1020.22 1020.20 1019.84 1019.47 1018.61 1016.33 1014.70 1013.39 1013.03 1013.20 1013.62 1013.93 1013.89 1013.85
1016.89 1016.88 1016.86 1016.86 1017.49 1017.56 1017.81 1018.05 1018.08 1017.76 1018.51 1020.22 1019.49 1019.34 1018.79 1018.56 1018.76 1018.68 1018.85 1018.84 1018.70 1019.08 1019.31 1019.72 1020.42 1020.52 1020.52 1020.58 1020.79 1021.06 1020.99 1020.98 1020.84 1021.06 1021.37 1021.05 1019.16 1016.16 1014.21 1013.47 1013.40 1013.70 1014.00 1014.36 1014.33
1017.39 1017.22 1016.96 1016.41 1017.23 1017.79 1017.90 1017.98 1017.71 1017.61 1018.92 1020.58 1019.68 1019.36 1018.70 1018.57 1019.16 1019.34 1019.35 1018.95 1019.18 1019.50 1020.02 1020.49 1020.67 1020.84 1020.71 1020.58 1021.11 1021.27 1021.28 1021.43 1021.66 1022.44 1022.71 1021.36 1021.00 1016.55 1014.69 1014.00 1013.89 1014.18 1014.89 1014.92 1015.03
1017.71 1017.56 1017.05 1017.07 1017.60 1018.25 1017.95 1017.56 1017.60 1017.98 1020.37 1020.60 1019.90 1019.12 1018.64 1018.91 1019.34 1019.65 1019.57 1019.71 1019.85 1019.81 1020.23 1020.61 1021.03 1020.97 1020.65 1020.79 1021.13 1021.45 1021.62 1021.73 1022.27 1023.06 1022.98 1021.01 1020.49 1017.11 1015.52 1015.13 1015.03 1015.25 1015.51 1015.70 1015.43
1017.93 1017.74 1017.42 1017.02 1017.87 1017.82 1017.70 1017.81 1018.32 1019.16 1021.16 1020.58 1019.85 1019.36 1019.59 1019.50 1019.64 1019.59 1019.58 1019.52 1019.73 1020.33 1020.95 1020.89 1021.02 1020.83 1020.92 1021.13 1021.58 1022.19 1022.56 1022.57 1023.01 1023.23 1021.86 1020.94 1020.36 1017.20 1015.68 1015.68 1016.33 1016.78 1016.74 1016.43 1015.91
1018.12 1017.75 1017.82 1017.86 1017.78 1017.63 1017.60 1017.48 1018.27 1020.17 1020.65 1020.54 1019.96 1019.99 1020.12 1019.93 1020.00 1019.98 1019.72 1019.60 1020.16 1020.63 1021.36 1021.15 1021.18 1021.04 1021.23 1021.49 1021.98 1022.81 1022.98 1023.12 1023.30 1022.58 1021.70 1020.94 1019.20 1016.73 1016.02 1016.27 1016.76 1017.27 1017.20 1016.83 1016.24
1018.32 1017.81 1017.95 1018.05 1017.68 1017.49 1017.64 1018.18 1019.67 1019.92 1019.95 1019.79 1019.93 1020.12 1020.06 1020.21 1020.28 1020.24 1020.10 1019.73 1020.26 1020.78 1021.01 1021.05 1021.21 1021.29 1021.57 1021.69 1022.49 1022.73 1022.98 1022.94 1023.09 1021.94 1021.76 1019.72 1018.04 1016.47 1016.54 1016.71 1016.54 1017.07 1017.15 1016.92 1016.25
1018.53 1017.78 1017.99 1017.81 1017.63 1017.48 1017.66 1019.10 1019.90 1019.60 1019.60 1019.74 1019.88 1020.08 1020.08 1020.42 1020.53 1020.40 1020.14 1020.22 1020.41 1020.67 1021.14 1021.96 1021.95 1021.49 1021.84 1022.10 1022.31 1022.45 1023.01 1023.06 1023.08 1022.31 1020.93 1019.09 1018.08 1017.75 1017.65 1017.81 1017.85 1017.67 1017.55 1017.15 1016.42
1019.16 1018.11 1017.83 1017.48 1017.44 1017.50 1018.52 1019.61 1019.98 1019.93 1019.83 1019.76 1019.54 1019.62 1019.62 1020.08 1020.33 1020.56 1020.31 1020.47 1020.31 1020.94 1021.44 1022.06 1022.33 1022.06 1021.87 1021.44 1021.41 1022.24 1022.38 1022.43 1022.23 1021.67 1021.07 1020.05 1018.54 1018.35 1018.65 1018.57 1018.45 1018.28 1017.79 1017.08 1016.05
1018.61 1018.65 1018.02 1017.55 1018.00 1018.36 1019.40 1019.69 1019.94 1019.88 1019.84 1019.68 1019.66 1019.73 1019.69 1020.01 1020.22 1020.75 1020.75 1020.27 1020.48 1020.78 1021.38 1021.87 1022.14 1021.67 1020.59 1019.68 1019.84 1020.30 1020.52 1020.83 1021.23 1021.16 1020.89 1020.40 1018.57 1018.11 1018.35 1018.56 1018.56 1018.48 1018.06 1017.25 1016.44
1018.74 1018.33 1018.06 1017.95 1018.28 1019.21 1019.72 1019.91 1019.91 1019.82 1019.79 1019.61 1019.60 1019.82 1019.97 1020.03 1020.27 1020.27 1020.66 1020.37 1020.52 1020.71 1021.11 1021.69 1021.73 1020.94 1019.96 1020.07 1019.73 1019.82 1019.48 1019.77 1020.12 1020.57 1019.97 1019.78 1017.70 1017.11 1017.61 1018.00 1018.20 1018.14 1017.72 1017.18 1016.41
1019.28 1018.61 1018.20 1018.18 1018.14 1018.49 1019.30 1019.71 1019.95 1020.04 1019.92 1019.90 1019.84 1019.93 1019.98 1020.02 1020.24 1020.31 1020.51 1020.34 1020.48 1020.69 1020.96 1021.26 1021.01 1020.55 1019.88 1019.14 1018.82 1018.81 1018.66 1018.84 1019.36 1019.71 1018.77 1017.99 1016.79 1016.52 1016.95 1017.21 1017.46 1017.50 1017.40 1016.94 1016.29
1019.63 1019.39 1018.92 1018.74 1019.07 1019.00 1018.82 1019.26 1019.64 1019.83 1019.99 1019.99 1019.98 1020.03 1020.21 1020.16 1020.16 1020.27 1020.48 1020.43 1020.51 1020.50 1020.83 1020.98 1020.43 1020.02 1019.21 1018.42 1018.00 1017.67 1017.69 1017.89 1018.24 1018.11 1018.23 1016.54 1016.18 1015.60 1015.57 1016.01 1016.52 1016.76 1016.89 1016.63 1016.11
1020.32 1019.92 1019.70 1019.05 1018.84 1019.19 1019.52 1019.18 1019.14 1019.56 1019.91 1019.81 1019.96 1019.92 1020.13 1020.27 1020.09 1020.02 1019.99 1020.36 1020.12 1020.34 1020.60 1020.40 1020.17 1019.53 1018.74 1017.70 1017.34 1016.68 1016.28 1016.32 1016.66 1016.71 1016.48 1015.88 1014.98 1014.38 1014.68 1015.27 1015.85 1016.20 1016.50 1016.22 1016.08
1020.60 1020.15 1020.24 1019.80 1019.23 1018.84 1018.87 1019.08 1019.24 1019.44 1019.77 1019.76 1019.95 1020.05 1020.13 1020.28 1020.18 1020.09 1020.00 1019.97 1020.01 1020.15 1020.17 1020.23 1020.19 1019.83 1018.66 1017.48 1016.91 1015.76 1014.29 1014.43 1014.81 1014.75 1014.78 1014.80 1013.92 1013.83 1014.21 1014.71 1015.31 1015.72 1016.06 1016.09 1016.08
Wind_Speed
11 9 8 3 5 5 6 6 7 8 8 17 15 13 12 8 5 5 4 6 4 2 6 3 5 4 3 3 4 3 1 4 2 4 6 2 1 4 4 6 2 3 6 7 5
10 10 10 5 9 6 6 7 7 6 7 17 18 16 12 11 10 9 5 4 4 2 6 7 7 7 3 5 3 2 2 6 7 9 7 7 6 7 4 4 5 2 3 7 4
11 11 12 9 7 8 6 6 6 6 2 17 19 16 11 7 4 7 5 4 3 8 8 4 6 6 4 5 3 4 2 3 9 9 8 7 5 4 3 5 7 5 5 5 4
12 10 10 11 7 1 8 7 6 4 6 14 16 14 9 6 6 4 5 5 3 6 2 2 3 2 5 5 4 2 5 6 4 5 4 5 8 7 8 7 10 9 8 7 8
12 10 9 6 4 2 4 7 7 8 9 18 20 12 3 7 6 6 4 3 1 2 2 3 6 1 5 6 3 4 5 2 4 2 4 5 7 8 9 11 9 7 7 8 8
13 11 9 7 4 3 4 2 7 9 2 17 20 6 4 11 7 9 7 3 3 4 4 4 4 3 7 5 2 5 3 3 1 2 4 5 6 5 7 4 5 5 7 8 9
15 13 12 9 5 3 2 3 7 12 10 23 9 7 17 7 6 13 7 4 1 6 9 8 5 3 6 4 1 1 3 5 6 2 3 3 8 5 6 7 5 8 8 9 9
16 15 15 10 7 4 3 11 23 24 19 15 3 8 6 6 12 6 9 10 10 9 7 8 6 6 5 4 3 2 1 2 4 3 5 4 7 3 5 4 8 9 9 10 11
15 18 20 21 24 25 19 25 27 23 19 17 8 10 6 14 7 5 6 10 8 7 4 4 3 3 4 3 1 2 2 1 4 3 2 4 7 11 2 7 12 12 12 11 10
15 17 21 24 27 31 29 28 27 16 11 4 5 12 4 7 5 8 5 4 5 4 3 1 1 3 3 3 2 3 1 3 4 5 8 8 15 16 13 15 14 11 9 9 9
13 13 14 18 17 18 11 6 4 6 8 11 16 20 8 2 3 7 3 4 1 3 2 2 1 4 6 6 4 3 0 5 8 6 6 8 14 16 17 13 14 10 9 8 8
11 14 15 10 16 14 3 5 3 5 15 13 17 17 10 1 8 5 5 1 2 4 2 1 6 6 6 4 3 2 4 6 5 4 9 11 21 22 22 19 16 4 7 9 4
10 8 9 11 10 9 10 5 4 5 6 7 11 10 8 2 6 7 5 4 5 5 5 5 6 4 2 2 2 2 3 5 5 10 9 11 11 6 1 3 2 2 6 7 7
10 9 7 5 7 7 4 3 4 3 5 9 6 5 3 6 5 5 5 4 2 4 4 6 5 1 1 2 3 2 6 6 6 7 3 11 10 6 10 9 7 7 8 5 10
11 6 6 12 9 3 1 2 4 3 7 6 4 3 1 4 8 3 3 5 4 5 3 3 5 4 2 2 6 1 3 5 5 3 6 4 6 7 8 3 2 1 11 14 13
8 5 5 6 4 1 3 5 3 1 5 2 2 1 4 4 3 3 1 2 1 1 3 4 1 3 5 4 2 6 6 6 2 1 5 8 7 7 2 5 10 14 16 16 14
9 9 8 5 3 4 4 3 0 7 3 2 3 4 3 2 3 2 2 3 3 2 4 4 2 2 2 1 4 4 4 2 2 4 6 4 0 10 14 7 11 12 15 16 16
2 4 4 5 4 4 3 1 10 6 3 2 3 7 2 4 3 1 2 4 3 3 2 3 2 3 5 3 1 3 1 1 4 3 4 1 6 7 6 11 12 11 15 15 16
6 2 3 5 7 3 3 9 6 3 4 5 7 3 3 3 2 1 1 3 3 1 2 2 3 4 2 3 3 3 1 3 3 6 4 5 6 3 12 16 21 21 19 18 19
4 2 2 5 5 4 4 7 4 5 6 4 1 4 4 2 1 4 1 4 3 4 4 3 1 2 3 1 3 2 3 1 3 4 5 4 3 4 14 17 18 20 19 18 15
4 1 4 5 2 3 5 5 8 6 5 4 5 2 6 2 2 2 3 2 2 4 3 2 1 1 1 6 6 4 3 5 3 2 3 5 3 2 7 13 17 18 20 19 18
2 2 3 3 5 3 4 3 1 3 2 2 2 4 4 3 2 2 1 2 4 3 1 4 0 4 7 7 8 8 5 6 3 1 3 3 6 3 7 12 11 15 17 16 15
0 1 3 1 4 3 3 4 3 2 2 1 2 2 0 2 1 3 3 2 4 1 2 5 3 4 5 2 3 4 6 6 3 2 6 3 5 3 11 12 9 12 14 13 13
4 2 1 3 2 8 5 2 3 1 1 1 2 2 2 3 3 0 2 3 3 4 4 1 4 6 4 3 1 5 5 10 6 3 4 8 12 9 8 11 9 10 10 10 9
2 2 1 4 2 3 2 4 4 3 2 2 4 3 2 2 4 4 4 3 6 4 3 4 5 7 11 11 11 11 10 11 8 12 5 6 6 9 6 6 5 6 7 8 9
3 1 3 2 4 3 1 4 5 5 2 5 3 4 5 3 2 1 3 4 3 7 5 5 5 6 8 13 12 13 14 14 16 16 16 15 19 13 5 4 3 5 6 7 7
0 2 2 1 3 3 2 4 5 5 3 2 2 2 6 2 5 5 5 5 3 2 5 4 3 4 6 5 7 11 9 15 10 8 11 12 9 4 3 4 3 5 5 6 6
Wind_Direction
81 81 107 55 49 51 45 107 96 80 210 180 164 158 152 169 190 211 105 39 61 44 303 167 190 192 199 84 318 322 297 265 237 307 76 97 280 82 9 324 328 101 38 107 120
91 87 75 80 42 61 55 56 71 32 5 183 155 150 163 185 214 56 26 50 57 307 251 185 157 178 145 136 182 237 261 33 16 27 45 65 2 19 358 281 253 260 240 154 177
96 89 74 94 53 14 38 23 27 82 330 161 151 150 170 203 148 79 4 79 25 294 278 289 148 197 132 138 165 180 339 30 55 36 14 4 330 285 287 284 276 334 360 16 25
84 76 58 81 92 17 343 356 4 30 222 167 147 141 156 218 116 58 348 315 341 304 232 162 163 185 130 182 116 242 76 27 79 67 4 324 338 307 283 258 310 316 322 331 319
66 57 55 58 147 137 294 340 360 15 198 166 140 139 170 84 40 7 114 123 155 270 151 207 195 127 157 114 143 274 90 51 84 169 240 263 265 257 276 275 285 292 287 281 279
56 50 48 55 40 80 211 8 351 11 55 154 121 106 242 86 334 312 303 161 115 84 20 337 49 1 60 76 349 30 49 314 297 280 279 302 288 305 248 198 256 255 261 264 271
48 35 19 3 344 349 84 57 347 43 106 103 108 105 62 77 321 284 74 69 325 91 62 23 350 334 117 117 347 81 283 218 221 66 15 337 282 211 265 262 298 293 269 256 248
43 35 23 5 328 205 239 101 96 88 67 46 77 102 59 273 286 109 95 86 67 62 49 27 41 47 44 120 174 263 23 260 96 137 100 52 268 311 103 288 270 270 279 275 262
50 56 47 60 85 75 92 105 85 67 54 355 24 74 95 300 58 41 88 93 90 78 69 77 20 111 189 136 199 75 297 321 105 118 11 153 283 287 273 262 267 264 267 268 272
72 74 67 62 84 91 82 81 57 33 18 17 103 74 307 88 59 64 34 63 88 126 122 21 160 115 97 54 132 103 344 335 280 173 193 251 269 279 272 263 263 265 262 263 268
82 78 87 85 77 81 76 63 47 50 46 75 77 91 117 103 81 42 60 99 167 5 68 20 92 82 76 43 53 24 5 285 283 356 14 290 284 289 279 271 271 269 269 265 252
70 73 79 87 98 92 71 73 27 149 81 83 97 97 115 224 99 60 288 169 217 92 182 23 78 64 66 70 34 351 312 294 303 17 328 294 291 282 271 260 258 275 292 268 282
71 91 53 64 111 75 96 85 356 301 81 59 73 86 125 121 88 58 19 319 52 72 14 64 83 118 143 82 360 216 294 328 319 344 296 341 296 251 330 104 129 248 291 301 271
81 64 33 32 79 108 84 203 256 295 92 18 18 35 120 162 72 32 356 2 60 92 355 79 131 236 254 267 96 272 37 351 343 29 306 41 291 292 281 204 191 206 223 315 356
86 72 48 43 142 50 338 215 270 238 75 357 18 284 177 54 141 75 346 294 40 112 259 91 160 182 185 43 99 18 23 308 313 38 326 261 236 268 266 253 302 18 2 351 339
54 32 314 96 84 119 278 316 309 322 73 27 339 122 92 96 74 131 164 186 329 151 72 91 98 310 6 59 14 338 315 303 68 166 253 224 177 276 320 360 7 359 351 334 324
53 37 55 25 51 317 309 255 319 55 282 108 127 109 113 120 108 239 140 113 52 52 26 1 324 85 333 36 83 359 321 290 237 221 229 337 110 250 299 56 33 350 334 326 326
8 341 70 54 329 326 290 338 58 83 62 221 146 104 53 65 49 120 127 82 85 55 100 3 52 208 142 175 199 214 144 53 282 328 300 64 243 268 53 18 2 343 335 329 320
296 176 58 348 323 322 278 46 25 50 125 119 74 30 74 67 342 66 253 70 60 63 50 347 104 72 172 73 127 179 208 0 304 247 253 227 254 258 11 351 351 342 333 328 321
297 262 63 322 317 256 74 90 82 66 108 93 153 246 163 117 134 349 50 48 92 57 48 57 289 68 121 136 169 135 7 236 160 290 295 299 279 277 350 336 331 331 329 324 319
282 283 313 338 322 23 69 85 96 58 7 344 22 74 58 89 2 51 23 103 46 108 83 112 60 105 46 205 186 163 216 216 286 260 286 317 291 212 346 337 328 326 325 328 332
237 356 332 324 49 34 42 77 359 99 167 113 327 29 3 63 144 102 256 62 70 124 184 184 168 264 225 157 180 203 247 191 155 15 240 244 267 83 15 326 328 321 320 332 332
306 129 237 278 94 72 141 94 36 161 76 159 113 50 283 173 273 123 197 43 128 200 178 174 219 287 153 128 209 244 219 233 210 99 224 251 270 236 358 321 326 316 323 339 326
291 33 100 358 329 125 132 128 124 109 91 330 85 244 228 176 125 43 168 187 163 222 121 231 258 244 238 265 243 231 219 204 192 237 252 241 288 302 297 305 311 309 321 325 322
324 327 353 138 340 67 166 135 146 170 208 235 188 230 221 234 203 216 155 249 187 191 199 217 252 248 258 270 270 260 235 240 194 220 244 271 244 283 270 240 264 276 315 329 340
335 49 276 50 117 236 215 192 174 134 219 157 262 135 177 245 311 320 172 203 225 174 224 195 274 301 284 262 249 253 249 237 237 240 243 253 274 277 117 162 243 298 313 330 353
235 220 260 74 222 172 198 149 197 142 143 223 330 280 224 283 355 325 330 310 291 247 219 195 260 332 269 313 287 281 247 225 226 226 230 240 248 158 226 214 215 280 307 330 352